Time,TemperatureF,DewpointF,PressureIn,WindDirection,WindDirectionDegrees,WindSpeedMPH,WindSpeedGustMPH,Humidity,HourlyPrecipIn,Conditions,Clouds,dailyrainin,SoftwareType,DateUTC
2013-03-11 00:02:00,23.0,14.0,-100.00,West,279,10.0,22.0,69,-99.99,,,-99.99,,2013-03-11 06:02:00,
2013-03-11 00:12:00,23.0,14.0,-100.00,West,279,10.0,22.0,69,-99.99,,,-99.99,,2013-03-11 06:12:00,
2013-03-11 00:22:00,23.0,16.0,-100.00,West,275,12.0,23.0,74,-99.99,,,-99.99,,2013-03-11 06:22:00,
2013-03-11 00:32:00,23.0,15.0,-100.00,West,271,11.0,25.0,72,-99.99,,,-99.99,,2013-03-11 06:32:00,
2013-03-11 00:42:00,23.0,15.0,-100.00,West,271,11.0,25.0,72,-99.99,,,-99.99,,2013-03-11 06:42:00,
2013-03-11 00:53:00,23.0,15.0,-100.00,West,269,14.0,24.0,71,-99.99,,,-99.99,,2013-03-11 06:53:00,
2013-03-11 01:02:00,23.0,14.0,-100.00,West,271,16.0,28.0,69,-99.99,,,-99.99,,2013-03-11 07:02:00,
2013-03-11 01:12:00,23.0,14.0,-100.00,West,271,16.0,28.0,69,-99.99,,,-99.99,,2013-03-11 07:12:00,
2013-03-11 01:21:00,23.0,13.0,-100.00,West,273,16.0,30.0,65,-99.99,,,-99.99,,2013-03-11 07:21:00,
2013-03-11 01:32:00,24.0,13.0,-100.00,West,271,13.0,23.0,62,-99.99,,,-99.99,,2013-03-11 07:32:00,
2013-03-11 01:42:00,24.0,13.0,-100.00,West,271,13.0,23.0,62,-99.99,,,-99.99,,2013-03-11 07:42:00,
2013-03-11 01:52:00,24.0,11.0,-100.00,West,273,14.0,24.0,57,-99.99,,,-99.99,,2013-03-11 07:52:00,
2013-03-11 02:02:00,23.0,16.0,-100.00,West,281,12.0,25.0,73,-99.99,,,-99.99,,2013-03-11 08:02:00,
2013-03-11 02:12:00,23.0,16.0,-100.00,West,281,12.0,25.0,73,-99.99,,,-99.99,,2013-03-11 08:12:00,
2013-03-11 02:22:00,23.0,14.0,-100.00,West,276,18.0,30.0,67,-99.99,,,-99.99,,2013-03-11 08:22:00,
2013-03-11 02:32:00,23.0,13.0,-100.00,West,279,15.0,26.0,65,-99.99,,,-99.99,,2013-03-11 08:32:00,
2013-03-11 02:52:00,22.0,14.0,-100.00,WNW,283,15.0,29.0,72,-99.99,,,-99.99,,2013-03-11 08:52:00,
2013-03-11 03:02:00,22.0,15.0,-100.00,WNW,284,14.0,26.0,73,-99.99,,,-99.99,,2013-03-11 09:02:00,
2013-03-11 03:12:00,22.0,15.0,-100.00,WNW,284,14.0,26.0,73,-99.99,,,-99.99,,2013-03-11 09:12:00,
2013-03-11 03:22:00,22.0,16.0,-100.00,WNW,282,14.0,26.0,78,-99.99,,,-99.99,,2013-03-11 09:22:00,
2013-03-11 03:32:00,22.0,17.0,-100.00,WNW,284,13.0,23.0,81,-99.99,,,-99.99,,2013-03-11 09:32:00,
2013-03-11 03:52:00,22.0,17.0,-100.00,WNW,282,13.0,27.0,80,-99.99,,,-99.99,,2013-03-11 09:52:00,
2013-03-11 04:02:00,22.0,17.0,-100.00,West,279,17.0,31.0,81,-99.99,,,-99.99,,2013-03-11 10:02:00,
2013-03-11 04:22:00,23.0,13.0,-100.00,West,273,19.0,41.0,66,-99.99,,,-99.99,,2013-03-11 10:22:00,
2013-03-11 04:32:00,23.0,7.0,-100.00,WNW,287,12.0,27.0,50,-99.99,,,-99.99,,2013-03-11 10:32:00,
2013-03-11 04:42:00,23.0,7.0,-100.00,WNW,287,12.0,27.0,50,-99.99,,,-99.99,,2013-03-11 10:42:00,
2013-03-11 04:52:00,23.0,9.0,-100.00,West,279,14.0,31.0,54,-99.99,,,-99.99,,2013-03-11 10:52:00,
2013-03-11 05:02:00,22.0,15.0,-100.00,West,281,14.0,27.0,75,-99.99,,,-99.99,,2013-03-11 11:02:00,
2013-03-11 05:12:00,22.0,15.0,-100.00,West,281,14.0,27.0,75,-99.99,,,-99.99,,2013-03-11 11:12:00,
2013-03-11 05:22:00,22.0,16.0,-100.00,West,280,15.0,25.0,78,-99.99,,,-99.99,,2013-03-11 11:22:00,
2013-03-11 05:32:00,22.0,17.0,-100.00,WNW,282,15.0,29.0,82,-99.99,,,-99.99,,2013-03-11 11:32:00,
2013-03-11 05:53:00,22.0,17.0,-100.00,WNW,282,13.0,27.0,81,-99.99,,,-99.99,,2013-03-11 11:53:00,
2013-03-11 06:02:00,22.0,19.0,-100.00,West,279,13.0,25.0,87,-99.99,,,-99.99,,2013-03-11 12:02:00,
2013-03-11 06:11:00,22.0,19.0,-100.00,West,279,13.0,25.0,87,-99.99,,,-99.99,,2013-03-11 12:11:00,
2013-03-11 06:22:00,22.0,20.0,-100.00,West,277,16.0,27.0,90,-99.99,,,-99.99,,2013-03-11 12:22:00,
2013-03-11 06:32:00,23.0,23.0,-100.00,West,280,13.0,26.0,100,-99.99,,,-99.99,,2013-03-11 12:32:00,
2013-03-11 07:02:00,23.0,23.0,-100.00,West,277,19.0,31.0,100,-99.99,,,-99.99,,2013-03-11 13:02:00,
2013-03-11 07:32:00,23.0,23.0,-100.00,WNW,282,15.0,27.0,100,-99.99,,,-99.99,,2013-03-11 13:32:00,
2013-03-11 07:52:00,22.0,22.0,-100.00,WNW,282,13.0,27.0,100,-99.99,,,-99.99,,2013-03-11 13:52:00,
2013-03-11 08:01:00,22.0,22.0,-100.00,West,274,15.0,25.0,100,-99.99,,,-99.99,,2013-03-11 14:01:00,
2013-03-11 08:32:00,22.0,22.0,-100.00,WNW,286,9.0,19.0,100,-99.99,,,-99.99,,2013-03-11 14:32:00,
2013-03-11 08:53:00,22.0,22.0,-100.00,WNW,293,11.0,25.0,100,-99.99,,,-99.99,,2013-03-11 14:53:00,
2013-03-11 09:12:00,22.0,22.0,-100.00,WNW,282,12.0,31.0,100,-99.99,,,-99.99,,2013-03-11 15:12:00,
2013-03-11 09:32:00,23.0,23.0,-100.00,WNW,284,9.0,23.0,100,-99.99,,,-99.99,,2013-03-11 15:32:00,
2013-03-11 09:53:00,23.0,23.0,-100.00,West,277,10.0,22.0,100,-99.99,,,-99.99,,2013-03-11 15:53:00,
2013-03-11 10:02:00,23.0,23.0,-100.00,West,277,15.0,28.0,100,-99.99,,,-99.99,,2013-03-11 16:02:00,
2013-03-11 10:32:00,24.0,24.0,-100.00,WNW,282,8.0,20.0,100,-99.99,,,-99.99,,2013-03-11 16:32:00,
2013-03-11 10:52:00,25.0,25.0,-100.00,WNW,297,6.0,18.0,100,-99.99,,,-99.99,,2013-03-11 16:52:00,
2013-03-11 11:24:00,26.0,26.0,-100.00,NW,304,6.0,17.0,100,-99.99,,,-99.99,,2013-03-11 17:24:00,
2013-03-11 11:34:00,27.0,27.0,-100.00,WNW,297,7.0,18.0,100,-99.99,,,-99.99,,2013-03-11 17:34:00,
2013-03-11 11:53:00,28.0,28.0,-100.00,WNW,293,6.0,18.0,100,-99.99,,,-99.99,,2013-03-11 17:53:00,
2013-03-11 12:02:00,28.0,28.0,-100.00,NW,309,7.0,22.0,100,-99.99,,,-99.99,,2013-03-11 18:02:00,
2013-03-11 12:22:00,28.0,28.0,-100.00,NW,312,8.0,18.0,100,-99.99,,,-99.99,,2013-03-11 18:22:00,
2013-03-11 12:32:00,29.0,29.0,-100.00,WNW,303,8.0,18.0,100,-99.99,,,-99.99,,2013-03-11 18:32:00,
2013-03-11 12:53:00,27.0,27.0,-100.00,NW,304,8.0,25.0,100,-99.99,,,-99.99,,2013-03-11 18:53:00,
2013-03-11 13:02:00,27.0,27.0,-100.00,SW,232,6.0,18.0,100,-99.99,,,-99.99,,2013-03-11 19:02:00,
2013-03-11 13:22:00,27.0,27.0,-100.00,NW,308,9.0,23.0,100,-99.99,,,-99.99,,2013-03-11 19:22:00,
2013-03-11 13:32:00,27.0,27.0,-100.00,WNW,299,9.0,24.0,100,-99.99,,,-99.99,,2013-03-11 19:32:00,
2013-03-11 13:42:00,27.0,27.0,-100.00,WNW,299,9.0,24.0,100,-99.99,,,-99.99,,2013-03-11 19:42:00,
2013-03-11 13:52:00,27.0,27.0,-100.00,NW,324,6.0,18.0,100,-99.99,,,-99.99,,2013-03-11 19:52:00,
2013-03-11 14:02:00,27.0,27.0,-100.00,WSW,258,5.0,20.0,100,-99.99,,,-99.99,,2013-03-11 20:02:00,
2013-03-11 14:12:00,27.0,27.0,-100.00,WSW,258,5.0,20.0,100,-99.99,,,-99.99,,2013-03-11 20:12:00,
2013-03-11 14:22:00,28.0,28.0,-100.00,WSW,244,4.0,12.0,100,-99.99,,,-99.99,,2013-03-11 20:22:00,
2013-03-11 14:32:00,28.0,28.0,-100.00,WNW,291,5.0,21.0,100,-99.99,,,-99.99,,2013-03-11 20:32:00,
2013-03-11 14:43:00,28.0,28.0,-100.00,WNW,291,5.0,21.0,100,-99.99,,,-99.99,,2013-03-11 20:43:00,
2013-03-11 14:53:00,29.0,29.0,-100.00,WNW,283,7.0,25.0,100,-99.99,,,-99.99,,2013-03-11 20:53:00,
2013-03-11 15:02:00,29.0,29.0,-100.00,WNW,283,7.0,25.0,100,-99.99,,,-99.99,,2013-03-11 21:02:00,
2013-03-11 15:12:00,29.0,29.0,-100.00,WNW,283,7.0,25.0,100,-99.99,,,-99.99,,2013-03-11 21:12:00,
2013-03-11 15:32:00,29.0,29.0,-100.00,West,281,7.0,21.0,100,-99.99,,,-99.99,,2013-03-11 21:32:00,
2013-03-11 15:43:00,29.0,29.0,-100.00,West,281,7.0,21.0,100,-99.99,,,-99.99,,2013-03-11 21:43:00,
2013-03-11 15:53:00,29.0,29.0,-100.00,West,270,7.0,21.0,100,-99.99,,,-99.99,,2013-03-11 21:53:00,
2013-03-11 16:02:00,28.0,28.0,-100.00,West,268,8.0,25.0,100,-99.99,,,-99.99,,2013-03-11 22:02:00,
2013-03-11 16:12:00,28.0,28.0,-100.00,West,268,8.0,25.0,100,-99.99,,,-99.99,,2013-03-11 22:12:00,
2013-03-11 16:22:00,27.0,27.0,-100.00,WNW,284,7.0,20.0,100,-99.99,,,-99.99,,2013-03-11 22:22:00,
2013-03-11 16:32:00,27.0,27.0,-100.00,West,266,8.0,20.0,100,-99.99,,,-99.99,,2013-03-11 22:32:00,
2013-03-11 16:43:00,27.0,27.0,-100.00,West,266,8.0,20.0,100,-99.99,,,-99.99,,2013-03-11 22:43:00,
2013-03-11 16:53:00,27.0,27.0,-100.00,West,260,7.0,16.0,100,-99.99,,,-99.99,,2013-03-11 22:53:00,
2013-03-11 17:12:00,27.0,27.0,-100.00,WSW,249,5.0,15.0,100,-99.99,,,-99.99,,2013-03-11 23:12:00,
2013-03-11 17:22:00,28.0,28.0,-100.00,West,281,4.0,13.0,100,-99.99,,,-99.99,,2013-03-11 23:22:00,
2013-03-11 17:32:00,28.0,28.0,-100.00,North,7,3.0,9.0,100,-99.99,,,-99.99,,2013-03-11 23:32:00,
2013-03-11 17:53:00,28.0,28.0,-100.00,WNW,294,5.0,10.0,100,-99.99,,,-99.99,,2013-03-11 23:53:00,
2013-03-11 18:02:00,27.0,27.0,-100.00,WNW,295,5.0,13.0,100,-99.99,,,-99.99,,2013-03-12 00:02:00,
2013-03-11 18:12:00,27.0,27.0,-100.00,WNW,295,5.0,13.0,100,-99.99,,,-99.99,,2013-03-12 00:12:00,
2013-03-11 18:22:00,27.0,27.0,-100.00,WNW,303,5.0,14.0,100,-99.99,,,-99.99,,2013-03-12 00:22:00,
2013-03-11 18:32:00,27.0,27.0,-100.00,WNW,294,5.0,22.0,100,-99.99,,,-99.99,,2013-03-12 00:32:00,
2013-03-11 18:42:00,27.0,27.0,-100.00,WNW,294,5.0,22.0,100,-99.99,,,-99.99,,2013-03-12 00:42:00,
2013-03-11 18:53:00,26.0,26.0,-100.00,West,275,6.0,19.0,100,-99.99,,,-99.99,,2013-03-12 00:53:00,
2013-03-11 19:02:00,26.0,26.0,-100.00,WNW,292,5.0,13.0,100,-99.99,,,-99.99,,2013-03-12 01:02:00,
2013-03-11 19:12:00,26.0,26.0,-100.00,WNW,292,5.0,13.0,100,-99.99,,,-99.99,,2013-03-12 01:12:00,
2013-03-11 19:22:00,26.0,26.0,-100.00,West,272,7.0,15.0,100,-99.99,,,-99.99,,2013-03-12 01:22:00,
2013-03-11 19:32:00,26.0,26.0,-100.00,West,266,12.0,24.0,100,-99.99,,,-99.99,,2013-03-12 01:32:00,
2013-03-11 19:42:00,26.0,26.0,-100.00,West,266,12.0,24.0,100,-99.99,,,-99.99,,2013-03-12 01:42:00,
2013-03-11 19:52:00,25.0,25.0,-100.00,West,261,12.0,20.0,100,-99.99,,,-99.99,,2013-03-12 01:52:00,
2013-03-11 20:02:00,25.0,25.0,-100.00,West,260,13.0,19.0,100,-99.99,,,-99.99,,2013-03-12 02:02:00,
2013-03-11 20:12:00,25.0,25.0,-100.00,West,260,13.0,19.0,100,-99.99,,,-99.99,,2013-03-12 02:12:00,
2013-03-11 20:22:00,26.0,26.0,-100.00,West,268,13.0,20.0,100,-99.99,,,-99.99,,2013-03-12 02:22:00,
2013-03-11 20:32:00,26.0,26.0,-100.00,West,274,10.0,17.0,100,-99.99,,,-99.99,,2013-03-12 02:32:00,
2013-03-11 20:42:00,26.0,26.0,-100.00,West,274,10.0,17.0,100,-99.99,,,-99.99,,2013-03-12 02:42:00,
2013-03-11 20:52:00,26.0,26.0,-100.00,West,274,13.0,24.0,100,-99.99,,,-99.99,,2013-03-12 02:52:00,
2013-03-11 21:02:00,26.0,26.0,-100.00,West,277,12.0,28.0,100,-99.99,,,-99.99,,2013-03-12 03:02:00,
2013-03-11 21:12:00,26.0,26.0,-100.00,West,277,12.0,28.0,100,-99.99,,,-99.99,,2013-03-12 03:12:00,
2013-03-11 21:22:00,26.0,26.0,-100.00,West,270,10.0,23.0,100,-99.99,,,-99.99,,2013-03-12 03:22:00,
2013-03-11 21:32:00,26.0,26.0,-100.00,West,268,7.0,16.0,100,-99.99,,,-99.99,,2013-03-12 03:32:00,
2013-03-11 21:42:00,26.0,26.0,-100.00,West,268,7.0,16.0,100,-99.99,,,-99.99,,2013-03-12 03:42:00,
2013-03-11 21:52:00,27.0,27.0,-100.00,WNW,285,7.0,17.0,100,-99.99,,,-99.99,,2013-03-12 03:52:00,
2013-03-11 22:02:00,27.0,27.0,-100.00,WNW,293,7.0,17.0,100,-99.99,,,-99.99,,2013-03-12 04:02:00,
2013-03-11 22:12:00,27.0,27.0,-100.00,WNW,293,7.0,17.0,100,-99.99,,,-99.99,,2013-03-12 04:12:00,
2013-03-11 22:22:00,26.0,26.0,-100.00,WNW,286,7.0,21.0,100,-99.99,,,-99.99,,2013-03-12 04:22:00,
2013-03-11 22:32:00,26.0,26.0,-100.00,WNW,291,9.0,20.0,100,-99.99,,,-99.99,,2013-03-12 04:32:00,
2013-03-11 22:42:00,26.0,26.0,-100.00,WNW,291,9.0,20.0,100,-99.99,,,-99.99,,2013-03-12 04:42:00,
2013-03-11 22:52:00,26.0,26.0,-100.00,WNW,286,7.0,17.0,100,-99.99,,,-99.99,,2013-03-12 04:52:00,
2013-03-11 23:02:00,26.0,26.0,-100.00,WNW,299,8.0,17.0,100,-99.99,,,-99.99,,2013-03-12 05:02:00,
2013-03-11 23:12:00,26.0,26.0,-100.00,WNW,299,8.0,17.0,100,-99.99,,,-99.99,,2013-03-12 05:12:00,
2013-03-11 23:22:00,26.0,26.0,-100.00,WNW,299,5.0,11.0,100,-99.99,,,-99.99,,2013-03-12 05:22:00,
2013-03-11 23:32:00,26.0,26.0,-100.00,WNW,295,6.0,18.0,100,-99.99,,,-99.99,,2013-03-12 05:32:00,
2013-03-11 23:42:00,26.0,26.0,-100.00,WNW,295,6.0,18.0,100,-99.99,,,-99.99,,2013-03-12 05:42:00,
2013-03-11 23:52:00,25.0,25.0,-100.00,WNW,287,8.0,23.0,100,-99.99,,,-99.99,,2013-03-12 05:52:00,